AirNav   Everest Fuels
 
 1596 users online  

NC12 Lee Creek Airport
Aurora, North Carolina, USA

GOING TO AURORA?


FAA INFORMATION EFFECTIVE 16 JUNE 2022

Location

FAA Identifier: NC12
Lat/Long: 35-23-22.6020N 076-47-04.7620W
35-23.376700N 076-47.079367W
35.3896117,-76.7846561
(estimated)
Elevation: 3 ft. / 1 m (estimated)
Variation: 08W (1985)
From city: 5 miles N of AURORA, NC
Time zone: UTC -4 (UTC -5 during Standard Time)
Zip code: 27806

Airport Operations

Airport use: Private use. Permission required prior to landing
Activation date: 07/1967
Control tower: no
ARTCC: WASHINGTON CENTER
FSS: RALEIGH FLIGHT SERVICE STATION
Attendance: UNATNDD
Wind indicator: yes
Segmented circle: no
Lights: FOR RY LGTS CALL 252-322-8215.

Airport Communications

WX AWOS-3 at OCW (17 nm NW): 120.175 (252-975-6133)

Nearby radio navigation aids

VOR radial/distance  VOR name  Freq  Var
EWNr042/22.9NEW BERN VOR/DME113.6008W
ISOr093/37.9KINSTON VORTAC109.6005W

 
NDB name  Hdg/Dist  Freq  Var  ID
CHOCOWINITY123/17.338808WRNW .-. -. .--
ALWOOD133/34.423009WAQE .- --.- .

Airport Services

Airframe service: NONE
Powerplant service: NONE

Runway Information

Runway 8/26

Dimensions: 5070 x 75 ft. / 1545 x 23 m
Surface: asphalt
Runway edge lights: low intensity
RUNWAY 8  RUNWAY 26
Traffic pattern: leftleft
Displaced threshold: 800 ft.no

Airport Ownership and Management from official FAA records

Ownership: Privately-owned
Owner: PCS PHOSPHATE
PO BOX 48
AURORA, NC 27806
Phone 252-322-4111
Manager: HOLLI WILLIAMSON
1530 NC HWY 306 SOUTH
AURORA, NC 27806
Phone 252-322-8148

Additional Remarks

BLDG, TREES AND EQUIPMENT SOUTH SIDE OF RY.
FOR CD CTC WASHINGTON ARTCC AT 703-771-3587.

Instrument Procedures

There are no published instrument procedures at NC12.

Some nearby airports with instrument procedures:

KOCW - Washington-Warren Airport (17 nm NW)
KEWN - Coastal Carolina Regional Airport (23 nm SW)
KPMZ - Plymouth Municipal Airport (25 nm N)
KNKT - Cherry Point Marine Corps Air Station (Cunningham Field) (30 nm S)
KPGV - Pitt-Greenville Airport (33 nm NW)
 
Loc | Ops | Rwys | IFR | FBO | Links
Com | Nav | Svcs | Stats | Notes
Area around NC12 (Lee Creek Airport)
 
Road maps at: MapQuest Bing Google
 
Aerial photo
No photo
 
Sectional chart

 
Airport distance calculator
Flying to Lee Creek Airport? Find the distance to fly.

From to NC12

Sunrise and sunset
Times for 06-Jul-2022
 Local
(UTC-4)
 Zulu
(UTC)
Morning civil twilight05:2909:29
Sunrise05:5909:59
Sunset20:2500:25
Evening civil twilight20:5400:54

Current date and time
Zulu (UTC)  06-Jul-2022 21:35:09
Local (UTC-4)  06-Jul-2022 17:35:09
 
METAR
KOCW 
17nm NW 
062035Z AUTO 18008KT 10SM CLR 35/22 A2990 RMK AO2 T03500221
KEWN 
23nm SW 
061954Z 26007KT 10SM CLR 35/23 A2993 RMK AO2 SLP134 T03500233
KNBT 
28nm SE 
062000Z AUTO 21011G22KT 10SM CLR 36/24 A2993 RMK AO2 SLP138 T03560244
KNKT 
31nm S 
061956Z 18011G19KT FEW030 BKN150 33/25 A2994 RMK SLP133 T03280250
KPGV 
33nm NW 
062035Z AUTO 22006KT 10SM SCT065 37/21 A2987 RMK AO2
TAF
KEWN 
23nm SW 
061742Z 0618/0718 25007KT P6SM FEW120 FM070200 21008G13KT P6SM VCSH SCT015 SCT100 FM071300 23008G13KT P6SM SCT040
NOTAMs
Click for the latest NOTAMs
NOTAMs are issued by the DoD/FAA and will open in a separate window not controlled by AirNav.

 

 
 

Would you like to see your business listed on this page?

 If your business provides an interesting product or service to pilots, flight crews, aircraft, or users of the Lee Creek Airport, you should consider listing it here.  To start the listing process, click on the button below
 
Add a business
 

Other Pages about Lee Creek Airport

Update a link
 
Copyright © AirNav, LLC. All rights reserved. Privacy Policy  Contact